Home > Weather > Edmundston > Past weeks

Flag for Canada Weather for the Past 2 Weeks in Edmundston, New Brunswick, Canada

Now
36 °F

Chilly.


Feels Like: 33 °F
Forecast: 37 / 48 °F
Wind: 5 mph from North

Location: St Leonard

Current Time: May 3, 2016 at 4:31:07 AM

Latest Report: May 3, 2016 at 3:00 AM


Visibility: N/A

Pressure: 29.94 "Hg

Humidity: 100%

Dew Point: 36 °F

Location of EdmundstonLocation

Historic Weather in Edmundston — Graph

°F

Edmundston Temperature Yesterday

Maximum temperature yesterday: 50 °F (at 11:00 AM)
Minimum temperature yesterday: 39 °F (at 11:00 PM)
Average temperature yesterday: 45 °F

High & Low Weather Summary for the Past Weeks

 TemperatureHumidityPressure
High67 °F (Apr 22, 4:00 PM)100% (May 3, 1:00 AM)30.33 "Hg (May 3, 1:00 AM)
Low16 °F (Apr 28, 6:00 AM)20% (May 1, 4:00 PM)29.74 "Hg (Apr 26, 7:00 PM)
Average38 °F52%30.01 "Hg
* Reported Apr 18 3:00 AM — May 3 3:00 AM, Edmundston, Weather by CustomWeather, © 2016

Note: Actual official high and low records may vary slightly from our data, if they occured in-between our weather recording intervals... More about our weather records

Advertising

Edmundston Weather History for the Previous 24 Hours

Scroll right to see more
 ConditionsComfort  
Time TempWeatherWind HumidityBarometerVisibility
3:00 AM
Tue, May 3
36 °FChilly.5 mph100%29.94 "HgN/A
2:00 AM38 °FChilly.7 mph97%29.94 "HgN/A
1:00 AM36 °FChilly.6 mph100%29.98 "HgN/A
12:00 AM38 °FChilly.3 mph95%30.00 "HgN/A
11:00 PM
Mon, May 2
39 °FChilly.3 mph94%30.01 "HgN/A
10:00 PM40 °FChilly.3 mph93%30.03 "HgN/A
9:00 PM40 °FChilly.3 mph92%30.05 "HgN/A
8:00 PM41 °FQuite cool.5 mph85%30.06 "HgN/A
7:00 PM44 °FQuite cool.3 mph74%30.06 "HgN/A
6:00 PM44 °FQuite cool.3 mph72%30.07 "HgN/A
5:00 PM44 °FQuite cool.9 mph69%30.09 "HgN/A
4:00 PM46 °FCool.9 mph65%30.11 "HgN/A
3:00 PM45 °FQuite cool.13 mph68%30.12 "HgN/A
2:00 PM48 °FCool.12 mph51%30.11 "HgN/A
1:00 PM49 °FCool.12 mph50%30.12 "HgN/A
12:00 PM50 °FCool.13 mph56%30.12 "HgN/A
11:00 AM50 °FCool.6 mph61%30.14 "HgN/A
10:00 AM48 °FCool.3 mph70%30.15 "HgN/A
9:00 AM42 °FQuite cool.3 mph87%30.16 "HgN/A
8:00 AM42 °FQuite cool.5 mph93%30.15 "HgN/A
7:00 AM42 °FQuite cool.5 mph90%30.16 "HgN/A
6:00 AM42 °FQuite cool.7 mph84%30.15 "HgN/A
5:00 AM45 °FQuite cool.9 mph72%30.14 "HgN/A
4:00 AM46 °FCool.6 mph60%30.13 "HgN/A
Weather by CustomWeather, © 2016

See weather overviewHow to use our weather pages